Location: *
(45.7833°S, 157.2833°W)
Time: 08:23:14
(UTC+00:00)

Daily predictions for brighter satellites

Satellite Brightness Start Highest point End
(mag) Time Altitude Azimuth Time Altitude Azimuth Time Altitude Azimuth
IDEFIX/ARIANE 42P 3.0 12:12:11 44° WNW 12:12:26 44° W 12:17:30 10° SSW
Meteor 2-10 4.2 12:06:53 10° S 12:12:30 84° E 12:14:24 44° NNE
NOSS 3-1 (C) 3.7 12:08:40 10° SW 12:14:18 41° WNW 12:14:18 41° WNW
USA 308 4.1 12:12:20 10° WSW 12:14:27 29° WSW 12:14:27 29° WSW
USA 229 DEB 3.7 12:11:02 10° SW 12:17:52 73° SE 12:24:07 10° NE
USA 229 3.7 12:11:05 10° SW 12:17:55 73° SE 12:24:12 10° NE
Cosmos 1605 Rocket 4.1 12:16:19 45° NW 12:18:18 66° W 12:24:48 10° S
Iridium 4 Rocket 4.2 12:18:24 35° W 12:18:52 35° W 12:23:19 10° SSW
MSX 4.1 12:18:33 45° NW 12:19:32 50° W 12:25:13 10° SSW
Cosmos 1437 Rocket 4.3 12:24:32 10° SW 12:26:58 24° WSW 12:26:58 24° WSW
ASTEX 1 4.1 12:23:42 10° S 12:28:16 37° WSW 12:29:01 35° W
Cosmos 921 Rocket 4.1 12:33:24 31° W 12:34:10 33° WSW 12:38:18 10° S
Cosmos 1805 3.3 12:34:23 10° SSW 12:38:11 58° W 12:38:11 58° W
Cosmos 1943 Rocket 3.0 12:38:43 29° W 12:40:50 40° SW 12:46:05 10° SSE
Cosmos 1766 3.5 12:36:58 10° S 12:40:54 63° E 12:42:00 42° NE
SL-16 R/B 4.2 12:36:07 10° SE 12:41:23 27° E 12:46:33 10° NNE
Cosmos 1726 2.3 12:41:19 10° SSW 12:44:41 53° WSW 12:44:41 53° WSW
NOSS 3-1 (A) 3.5 12:40:10 10° SW 12:46:11 47° WNW 12:47:26 40° NNW
ISS -3.4 12:46:55 54° ENE 12:46:55 54° ENE 12:49:55 10° ESE
BREEZE M DEB (TANK) 3.9 12:45:09 35° WNW 12:47:32 84° NNE 13:05:09 10° ESE
Cosmos 2297 4.0 12:47:43 36° WNW 12:49:53 59° WSW 12:55:32 10° SSE
Cosmos 1271 Rocket 4.4 12:48:29 10° S 12:51:52 30° ESE 12:55:13 10° NE
Cosmos 2346 Rocket 4.4 12:46:53 10° S 12:53:16 80° W 12:56:56 27° N
Cosmos 1656 Rocket 3.7 12:51:38 38° NNW 12:53:58 87° ENE 12:59:45 10° SSE
Lacrosse 5 rocket 1.5 12:53:12 48° NNW 12:54:24 76° NE 12:59:03 10° SE
Tiangong 0.0 12:57:38 18° NE 12:57:38 18° NE 12:58:59 10° ENE
Cosmos 1862 Rocket 3.5 12:55:08 45° N 12:56:29 87° W 13:00:59 10° S
ADEOS II 3.6 12:58:10 20° W 12:58:22 20° W 13:02:15 10° SW
CZ-2C R/B 2.3 12:56:52 24° NNE 12:59:37 82° ESE 13:04:18 10° SSW
ALOS 2.2 12:58:23 37° N 13:00:13 69° WNW 13:04:57 10° SSW
IRS-1D 3.7 12:59:01 38° NNW 13:00:29 50° W 13:05:23 10° SSW
Cosmos 1842 3.7 12:59:49 34° NNE 13:01:18 59° E 13:05:13 10° SSE
FENGYUN 3A 3.9 12:59:33 34° NNW 13:01:37 53° W 13:07:01 10° SSW
BREEZE-M DEB (TANK) 1.9 13:02:33 52° WSW 13:02:55 60° SSW 13:06:55 10° ESE
Cosmos 2173 Rocket 4.0 12:59:36 30° NNW 13:03:00 80° W 13:09:29 10° S
CZ-2C R/B 4.1 12:58:22 10° NE 13:03:05 42° ESE 13:07:41 10° S
Cosmos 2082 Rocket 4.1 13:04:11 10° WSW 13:05:53 12° W 13:05:53 12° W
SL-8 R/B 3.6 13:02:00 10° WSW 13:06:54 77° NNW 13:11:46 10° ENE
ARIANE 5 R/B 3.5 13:03:28 10° NE 13:08:17 48° ESE 13:13:14 10° S
Cosmos 1707 Rocket 4.1 13:07:03 36° WNW 13:08:18 46° WSW 13:12:42 10° S
MOZ.5/SAFIR/RUBIN 5/SL-8 3.9 13:04:02 10° S 13:08:44 64° WSW 13:10:36 35° NW
Helios 1B rocket 4.2 13:06:34 10° NE 13:10:15 33° ESE 13:13:59 10° S
Cosmos 2228 Rocket 4.3 13:09:52 26° W 13:11:02 29° WSW 13:15:08 10° S
Lacrosse 4 Rocket 1.3 13:10:01 43° NW 13:11:13 70° WSW 13:15:18 10° SSE
Cosmos 1674 4.2 13:09:32 15° NNE 13:12:01 31° E 13:15:22 10° SSE
Cosmos 1908 Rocket 4.1 13:08:02 10° S 13:12:30 59° E 13:16:27 12° NNE
Cosmos 1703 Rocket 4.5 13:09:27 18° NNE 13:12:33 47° E 13:16:57 10° SSE
SAR-Lupe-2 3.7 13:11:46 25° NNE 13:13:45 76° ESE 13:17:24 10° S
CBERS-1 4.0 13:11:47 24° N 13:14:55 67° WNW 13:20:07 10° SSW
BREEZE M DEB (TANK) 4.4 13:10:47 10° W 13:15:10 68° S 13:33:28 10° E
Cosmos 1725 Rocket 4.1 13:11:33 20° N 13:16:02 79° E 13:22:18 10° S
PAYLOAD A 4.1 13:15:55 19° N 13:19:47 71° WNW 13:25:19 10° SSW
Cosmos 1470 2.8 13:15:52 10° S 13:19:51 76° E 13:22:33 19° NNE
Meteor 1-22 Rocket 4.2 13:20:26 10° S 13:26:09 89° E 13:31:35 10° N
Cosmos 1459 Rocket 4.2 13:23:23 25° NW 13:26:51 55° WSW 13:32:53 10° S
Cosmos 1864 Rocket 4.5 13:23:19 21° NNW 13:27:50 82° W 13:34:11 10° S
Cosmos 2100 Rocket 4.4 13:26:04 24° NW 13:29:44 50° WSW 13:36:01 10° S
Cosmos 1802 Rocket 4.1 13:28:58 23° NNW 13:32:58 63° WSW 13:39:13 10° S
Meteor 1-12 Rocket 4.3 13:27:43 10° SSW 13:33:23 59° W 13:37:59 16° N
Cosmos 1707 2.7 13:33:34 23° N 13:35:56 85° E 13:39:53 10° S
KORONAS-FOTON 4.0 13:34:03 19° N 13:36:36 68° E 13:40:25 10° SSE
Cosmos 1782 Rocket 4.1 13:33:33 10° S 13:37:57 59° ESE 13:42:16 10° NNE
Cosmos 1908 4.3 13:34:25 10° S 13:38:08 45° ESE 13:41:47 10° NNE
Cosmos 1733 Rocket 4.3 13:35:28 10° SSW 13:39:10 26° W 13:40:26 22° WNW
IRS-P3 4.1 13:33:49 10° NNE 13:39:11 89° ESE 13:44:38 10° SSW
Cosmos 2369 Rocket 2.9 13:37:13 21° WNW 13:40:44 43° SW 13:46:13 10° SSE
YAOGAN 6 2.5 13:37:47 11° NNE 13:41:04 81° ESE 13:44:35 10° S
Cosmos 2084 4.1 13:36:53 10° SW 13:41:43 66° SE 13:46:16 10° NE
Cosmos 1420 Rocket 4.0 13:38:03 10° SSW 13:43:17 61° WNW 13:48:29 10° N
CZ-2D R/B 4.0 13:41:25 10° NNE 13:45:47 69° ESE 13:50:15 10° S
Cosmos 1371 Rocket 4.3 13:46:19 10° SSW 13:51:20 45° WNW 13:56:20 10° N
Tsikada Rocket 4.0 13:47:53 10° SSW 13:54:08 70° W 14:00:24 10° N
Okean 3 3.7 13:53:58 19° NNW 13:56:44 52° WSW 14:00:54 10° S
Meteor 1-21 4.3 13:52:02 10° N 13:57:40 81° E 14:03:22 10° SSE
Cosmos 494 Rocket 4.4 13:55:22 10° N 14:00:31 64° ENE 14:05:43 10° SSE
CZ-3B R/B 2.7 13:58:13 10° WSW 14:02:33 28° WNW 14:05:09 10° N
Cosmos 2233 Rocket 4.0 13:57:31 11° NNW 14:03:24 71° W 14:09:37 10° S
SL-14 R/B 4.4 14:02:38 10° NNE 14:06:27 44° E 14:10:18 10° SSE
Cosmos 2056 Rocket 4.2 14:01:43 10° SW 14:06:38 36° WNW 14:11:32 10° NNW
Cosmos 1626 2.6 14:06:45 17° NW 14:09:16 42° WSW 14:12:49 10° S
Okean 1-7 3.8 14:07:46 16° NW 14:10:53 37° WSW 14:15:03 10° S
USA 215 4.3 14:04:44 10° E 14:11:02 49° SSE 14:17:20 10° SW
UNK 3.9 14:06:39 10° S 14:11:15 62° WSW 14:15:36 11° NNW
SL-27 R/B 2.8 14:09:38 10° SSW 14:12:55 63° ESE 14:16:11 10° NNE
Cosmos 2242 Rocket 3.7 14:10:51 10° NNW 14:15:22 66° W 14:20:01 10° S
ATLAS 5 CENTAUR R/B 3.4 14:12:35 10° NNW 14:19:59 56° ENE 14:26:56 10° SE
Cosmos 1048 Rocket 4.1 14:14:35 10° NNW 14:20:00 88° ENE 14:25:25 10° SSE
Meteor 1-28 Rocket 3.9 14:17:02 10° S 14:20:30 36° WSW 14:23:35 12° NW
YAOGAN 11 4.4 14:17:47 10° SSE 14:22:14 70° ENE 14:26:42 10° N
Envisat 3.5 14:18:25 10° NNW 14:23:12 40° W 14:28:03 10° SSW
ISS -2.5 14:20:13 10° W 14:23:26 37° SSW 14:26:39 10° SE
SL-16 R/B 2.8 14:19:10 10° S 14:25:17 56° WSW 14:31:20 10° NW
Centaur D-1A AC-31 4.1 14:19:27 10° WNW 14:26:41 15° NW 14:30:30 10° NNW
Cosmos 1271 Rocket 4.2 14:24:43 10° SW 14:27:28 19° W 14:30:07 10° NW
H-2A R/B 3.7 14:26:54 10° NE 14:31:44 39° ESE 14:36:29 10° S
BREEZE-M DEB (TANK) 2.1 14:29:54 10° WSW 14:32:06 71° SSE 14:35:15 10° ENE
Tiangong -1.4 14:29:51 11° WNW 14:32:46 38° N 14:35:50 10° ENE
CZ-2C R/B 4.1 14:28:15 10° SSE 14:33:13 37° E 14:38:03 10° NNE
Lacrosse 5 rocket 3.0 14:29:40 10° W 14:33:46 31° SSW 14:37:55 10° SE
CZ-2C R/B 4.2 14:36:57 10° WNW 14:38:28 11° W 14:39:59 10° WSW
CZ-2C R/B 3.0 14:35:15 10° NNE 14:39:13 81° ESE 14:43:12 10° S
NOAA 11 4.5 14:34:00 10° N 14:39:16 48° W 14:44:36 10° SSW
Cosmos 1484 Rocket 4.1 14:39:23 10° NW 14:42:15 21° W 14:45:08 10° SW
Okean 2 3.7 14:39:07 10° NNW 14:43:06 49° WSW 14:47:09 10° S
CZ-2C R/B 4.0 14:38:57 10° NNW 14:43:06 25° W 14:47:09 10° SW
Cosmos 1939 Rocket 3.5 14:41:11 10° NNE 14:45:00 61° ESE 14:48:57 10° S
Helios 1B rocket 3.6 14:41:57 10° NNW 14:45:19 24° W 14:48:42 10° SW
Cosmos 1674 4.3 14:44:36 10° WNW 14:47:18 19° WSW 14:50:03 10° SSW
ARIANE 5 R/B 3.7 14:43:35 10° NW 14:47:37 24° W 14:51:44 10° SW
Cosmos 1452 Rocket 3.8 14:43:37 10° SSW 14:48:43 47° WNW 14:53:46 10° N
H-2A R/B 3.5 14:46:37 10° NNW 14:50:02 32° W 14:53:30 10° SSW
